TimeEDT,TemperatureF,Dew PointF,Humidity,Sea Level PressureIn,VisibilityMPH,Wind Direction,Wind SpeedMPH,Gust SpeedMPH,PrecipitationIn,Events,Conditions,WindDirDegrees,DateUTC
12:15 AM,60.8,60.8,100,29.89,5.0,East,4.6,-,N/A,,Overcast,80,2012-10-03 04:15:00
12:44 AM,60.8,60.8,100,29.89,5.0,ESE,4.6,-,N/A,,Overcast,110,2012-10-03 04:44:00
12:48 AM,60.8,60.8,100,29.89,4.0,East,4.6,-,N/A,,Overcast,100,2012-10-03 04:48:00
12:55 AM,59.9,59.9,100,29.89,4.0,ESE,4.6,-,N/A,,Overcast,120,2012-10-03 04:55:00
1:15 AM,60.8,60.8,100,29.89,5.0,SE,4.6,-,N/A,,Overcast,130,2012-10-03 05:15:00
1:19 AM,60.8,60.8,100,29.89,5.0,ESE,4.6,-,N/A,,Overcast,120,2012-10-03 05:19:00
1:31 AM,60.8,60.8,100,29.89,5.0,ESE,4.6,-,N/A,,Overcast,120,2012-10-03 05:31:00
1:37 AM,60.8,60.8,100,29.88,5.0,SE,5.8,-,N/A,,Mostly Cloudy,130,2012-10-03 05:37:00
1:49 AM,59.0,59.0,100,29.89,6.0,Calm,Calm,-,N/A,,Overcast,0,2012-10-03 05:49:00
1:51 AM,59.0,59.0,100,29.89,6.0,SSE,3.5,-,N/A,,Overcast,160,2012-10-03 05:51:00
1:53 AM,59.0,59.0,100,29.89,6.0,SSE,3.5,-,N/A,,Overcast,150,2012-10-03 05:53:00
1:55 AM,59.7,59.7,100,29.89,6.0,SSE,3.5,-,N/A,,Overcast,160,2012-10-03 05:55:00
1:56 AM,59.0,59.0,100,29.89,6.0,SSE,3.5,-,N/A,,Overcast,150,2012-10-03 05:56:00
2:02 AM,59.0,59.0,100,29.89,6.0,SSE,3.5,-,N/A,,Overcast,150,2012-10-03 06:02:00
2:15 AM,59.0,59.0,100,29.89,6.0,SSE,3.5,-,N/A,,Overcast,150,2012-10-03 06:15:00
2:50 AM,59.0,59.0,100,29.90,6.0,South,4.6,-,N/A,,Overcast,170,2012-10-03 06:50:00
2:55 AM,59.2,59.2,100,29.91,8.0,South,3.5,-,N/A,,Overcast,170,2012-10-03 06:55:00
3:02 AM,59.0,59.0,100,29.91,7.0,SSE,3.5,-,N/A,,Overcast,160,2012-10-03 07:02:00
3:20 AM,59.0,59.0,100,29.91,7.0,South,8.1,-,N/A,,Overcast,190,2012-10-03 07:20:00
3:55 AM,57.6,56.7,97,29.91,10.0,South,4.6,-,N/A,,Overcast,180,2012-10-03 07:55:00
4:53 AM,57.2,55.4,94,29.92,10.0,South,4.6,-,N/A,,Overcast,190,2012-10-03 08:53:00
4:55 AM,57.2,56.1,96,29.92,10.0,South,4.6,-,N/A,,Overcast,180,2012-10-03 08:55:00
5:09 AM,57.2,55.4,94,29.93,10.0,South,5.8,-,N/A,,Overcast,180,2012-10-03 09:09:00
5:35 AM,57.2,55.4,94,29.94,10.0,South,5.8,-,N/A,,Overcast,190,2012-10-03 09:35:00
5:55 AM,57.2,56.1,96,29.94,10.0,South,5.8,-,N/A,,Overcast,190,2012-10-03 09:55:00
6:05 AM,57.2,55.4,94,29.94,10.0,South,5.8,-,N/A,,Overcast,190,2012-10-03 10:05:00
6:16 AM,57.2,55.4,94,29.95,10.0,South,5.8,-,N/A,,Overcast,190,2012-10-03 10:16:00
6:55 AM,57.0,55.9,96,29.96,10.0,South,4.6,-,N/A,,Overcast,170,2012-10-03 10:55:00
7:55 AM,56.7,55.6,96,29.97,10.0,South,5.8,-,N/A,,Overcast,180,2012-10-03 11:55:00
8:27 AM,57.2,55.4,94,29.98,10.0,SSE,6.9,-,N/A,,Overcast,160,2012-10-03 12:27:00
8:55 AM,56.8,55.8,96,29.99,2.5,South,9.2,-,N/A,,Light Drizzle,190,2012-10-03 12:55:00
9:00 AM,57.2,55.4,94,29.99,7.0,South,8.1,-,N/A,,Overcast,180,2012-10-03 13:00:00
9:19 AM,57.2,55.4,94,29.99,10.0,South,9.2,-,N/A,,Overcast,180,2012-10-03 13:19:00
9:21 AM,57.2,55.4,94,29.99,10.0,South,8.1,-,N/A,,Overcast,180,2012-10-03 13:21:00
9:23 AM,57.2,55.4,94,29.99,10.0,South,8.1,-,N/A,,Overcast,180,2012-10-03 13:23:00
9:55 AM,57.4,55.9,95,30.00,10.0,South,11.5,-,0.00,,Overcast,190,2012-10-03 13:55:00
10:18 AM,59.0,55.4,88,30.00,10.0,South,10.4,-,N/A,,Overcast,190,2012-10-03 14:18:00
10:30 AM,57.2,55.4,94,30.00,10.0,South,15.0,-,N/A,,Overcast,190,2012-10-03 14:30:00
10:41 AM,57.2,55.4,94,30.01,10.0,South,12.7,-,N/A,,Overcast,180,2012-10-03 14:41:00
10:55 AM,58.1,55.8,92,30.01,10.0,South,12.7,-,N/A,,Overcast,180,2012-10-03 14:55:00
11:12 AM,59.0,55.4,88,30.01,10.0,South,11.5,-,N/A,,Overcast,190,2012-10-03 15:12:00
11:45 AM,57.2,55.4,94,30.01,10.0,South,12.7,-,N/A,,Overcast,180,2012-10-03 15:45:00
11:55 AM,58.5,56.3,93,30.01,10.0,South,12.7,-,N/A,,Overcast,190,2012-10-03 15:55:00
12:55 PM,58.8,56.7,93,30.01,10.0,SSW,15.0,-,N/A,,Overcast,210,2012-10-03 16:55:00
1:55 PM,60.3,56.7,88,30.01,10.0,SSW,9.2,-,N/A,,Overcast,210,2012-10-03 17:55:00
2:10 PM,60.8,55.4,82,30.00,10.0,SW,15.0,-,N/A,,Overcast,220,2012-10-03 18:10:00
2:55 PM,60.8,56.5,86,30.00,10.0,SSW,15.0,-,N/A,,Overcast,210,2012-10-03 18:55:00
3:30 PM,60.8,55.4,82,30.01,10.0,SW,10.4,-,N/A,,Overcast,220,2012-10-03 19:30:00
3:55 PM,63.0,56.3,79,30.01,10.0,SW,13.8,-,N/A,,Mostly Cloudy,220,2012-10-03 19:55:00
4:17 PM,64.4,55.4,73,30.00,10.0,SW,11.5,20.7,N/A,,Mostly Cloudy,220,2012-10-03 20:17:00
4:55 PM,66.4,55.4,68,30.01,10.0,SSW,11.5,-,N/A,,Mostly Cloudy,200,2012-10-03 20:55:00
5:55 PM,65.8,52.9,63,30.02,10.0,SSW,11.5,-,N/A,,Overcast,210,2012-10-03 21:55:00
6:55 PM,64.4,53.4,67,30.03,10.0,South,6.9,-,N/A,,Overcast,190,2012-10-03 22:55:00
7:55 PM,62.1,52.9,72,30.03,10.0,South,5.8,-,N/A,,Mostly Cloudy,190,2012-10-03 23:55:00
8:55 PM,59.4,52.0,77,30.05,10.0,South,5.8,-,N/A,,Partly Cloudy,170,2012-10-04 00:55:00
9:55 PM,57.2,52.3,84,30.06,10.0,SSE,6.9,-,N/A,,Mostly Cloudy,160,2012-10-04 01:55:00
10:55 PM,59.0,52.3,79,30.06,10.0,South,8.1,-,N/A,,Clear,180,2012-10-04 02:55:00
11:55 PM,58.6,52.3,80,30.08,10.0,South,10.4,-,N/A,,Clear,190,2012-10-04 03:55:00